Willimantic, CT

4:42 PM EST on December 06, 2019 (GMT -0500)
Windham

Weather History for KIJD - October, 2019

Change the Weather History Date:

Saturday, October 26, 2019

  Actual Average Record
Temperature  
Mean Temperature 52 °F -  
Max Temperature 62 °F 59 °F 81 °F (1963)
Min Temperature 44 °F 35 °F 15 °F (1952)
Degree Days  
Heating Degree Days 12    
Growing Degree Days 2 (Base 50)    
Moisture  
Dew Point 43 °F    
Average Humidity 79    
Maximum Humidity 100    
Minimum Humidity 38    
Precipitation  
Precipitation 0.00 in - - ()
Sea Level Pressure  
Sea Level Pressure 30.21 in    
Wind  
Wind Speed 2 mph ()    
Max Wind Speed 14 mph    
Max Gust Speed -    
Visibility 8.1 miles    
Events Rain    
Averages and records for this station are not official NWS values.
T = Trace of Precipitation, MM = Missing Value Source: Averaged Metar Reports

Daily Weather History Graph

Daily Weather History Graph

Search for Another Location

Airport or City:

Astronomy

Oct. 26, 2019 Rise Set
Actual Time 7:13 AM EDT 5:51 PM EDT
Civil Twilight 6:44 AM EDT 6:19 PM EDT
Nautical Twilight 6:12 AM EDT 6:52 PM EDT
Astronomical Twilight 5:40 AM EDT 7:24 PM EDT
Moon 5:02 AM EDT (10/26) 5:27 PM EDT (10/26)
Length of Visible Light 11h 35m
Length of Day
10h 38m
Waning Crescent, 3% of the Moon is Illuminated
Oct 26
Waning Crescent
Oct 27
New
Nov 4
First Quarter
Nov 12
Full
Nov 19
Last Quarter

Hourly Weather History & Observations

Time (EDT) Temp. Windchill Dew Point Humidity Pressure Visibility Wind Dir Wind Speed Gust Speed Precip Events Conditions
12:52 AM 51.1 °F - 48.9 °F 92% 30.17 in 10.0 mi Calm Calm - 0.00 in Rain Light Rain
1:52 AM 51.1 °F - 50.0 °F 96% 30.16 in 10.0 mi Calm Calm - 0.00 in   Overcast
2:17 AM 51.1 °F - 50.0 °F 96% 30.15 in 10.0 mi Calm Calm - N/A   Overcast
2:52 AM 52.0 °F - 50.0 °F 93% 30.14 in 10.0 mi North 3.5 mph - N/A   Overcast
3:11 AM 51.1 °F - 48.9 °F 92% 30.16 in 10.0 mi North 3.5 mph - N/A   Overcast
3:21 AM 51.1 °F - 48.9 °F 92% 30.15 in 10.0 mi NNE 3.5 mph - N/A   Overcast
3:33 AM 51.1 °F - 48.9 °F 92% 30.15 in 10.0 mi NNE 3.5 mph - N/A   Overcast
3:52 AM 50.0 °F - 48.9 °F 96% 30.15 in 10.0 mi Calm Calm - N/A   Mostly Cloudy
4:52 AM 48.0 °F - 46.9 °F 96% 30.17 in 7.0 mi Calm Calm - N/A   Mostly Cloudy
5:36 AM 46.0 °F - 45.0 °F 96% 30.18 in 1.8 mi Calm Calm - N/A   Clear
5:46 AM 44.6 °F - 44.6 °F 100% 30.18 in 3.0 mi Calm Calm - N/A   Clear
5:47 AM 45.0 °F - 45.0 °F 100% 30.18 in 3.0 mi Calm Calm - N/A   Clear
5:57 AM 44.1 °F - 43.0 °F 96% 30.18 in 4.0 mi Calm Calm - N/A   Scattered Clouds
6:01 AM 44.1 °F - 43.0 °F 96% 30.18 in 1.8 mi Calm Calm - N/A   Scattered Clouds
6:06 AM 45.0 °F - 44.1 °F 97% 30.19 in 1.8 mi Calm Calm - N/A   Mostly Cloudy
6:15 AM 44.1 °F - 43.0 °F 96% 30.19 in 1.8 mi Calm Calm - N/A   Mostly Cloudy
6:26 AM 44.1 °F - 43.0 °F 96% 30.19 in 3.0 mi Calm Calm - N/A   Mostly Cloudy
6:39 AM 46.0 °F 42.5 °F 45.0 °F 96% 30.19 in 7.0 mi North 6.9 mph - N/A   Partly Cloudy
6:52 AM 45.0 °F 42.6 °F 45.0 °F 100% 30.20 in 7.0 mi North 4.6 mph - N/A   Partly Cloudy
7:52 AM 46.9 °F - 45.0 °F 93% 30.22 in 10.0 mi North 5.8 mph - N/A   Clear
8:52 AM 51.1 °F - 45.0 °F 80% 30.25 in 10.0 mi North 10.4 mph - N/A   Clear
9:52 AM 54.0 °F - 42.1 °F 64% 30.25 in 10.0 mi North 13.8 mph - N/A   Clear
10:52 AM 55.9 °F - 36.0 °F 47% 30.25 in 10.0 mi North 12.7 mph - N/A   Clear
11:52 AM 57.9 °F - 39.0 °F 49% 30.25 in 10.0 mi North 10.4 mph - N/A   Clear
12:52 PM 59.0 °F - 37.0 °F 44% 30.24 in 10.0 mi Variable 3.5 mph - N/A   Clear
1:52 PM 60.1 °F - 34.0 °F 38% 30.24 in 10.0 mi Variable 5.8 mph - N/A   Clear
2:52 PM 61.0 °F - 35.1 °F 38% 30.22 in 10.0 mi North 5.8 mph - N/A   Clear
3:52 PM 60.1 °F - 36.0 °F 41% 30.25 in 10.0 mi NNE 6.9 mph - N/A   Clear
4:52 PM 59.0 °F - 34.0 °F 39% 30.24 in 10.0 mi NE 4.6 mph - N/A   Clear
5:52 PM 55.9 °F - 37.9 °F 51% 30.27 in 10.0 mi Calm Calm - N/A   Clear
6:52 PM 51.1 °F - 41.0 °F 68% 30.27 in 10.0 mi NE 3.5 mph - N/A   Clear
7:52 PM 48.9 °F - 41.0 °F 74% 30.29 in 10.0 mi Calm Calm - N/A   Clear
8:52 PM 48.0 °F - 42.1 °F 80% 30.30 in 10.0 mi Calm Calm - N/A   Clear
9:52 PM 46.9 °F - 39.0 °F 74% 30.29 in 10.0 mi Calm Calm - N/A   Clear
10:52 PM 48.0 °F - 41.0 °F 77% 30.30 in 10.0 mi Calm Calm - N/A   Clear
11:52 PM 48.0 °F - 43.0 °F 83% 30.31 in 10.0 mi Calm Calm - N/A   Clear